Regional Weather Roundup
Issued by NWS

Home | Current Version | Previous Version | Graphics & Text | Print | Product List | Glossary On
Versions: 1 2 3 4 5 6 7 8 9 10 11 12 13 14 15 16 17 18 19 20 21 22 23 24 25 26 27 28 29 30 31 32 33 34 35 36 37 38 39 40 41 42 43 44 45 46 47 48 49 50
000
ASUS43 KLSX 241210
RWRMO

WEATHER SUMMARY FOR MISSOURI
NATIONAL WEATHER SERVICE SPRINGFIELD MO
700 AM CDT SAT JUN 24 2017

NOTE: "FAIR" INDICATES FEW OR NO CLOUDS BELOW 12,000 FEET WITH NO
       SIGNIFICANT WEATHER AND/OR OBSTRUCTIONS TO VISIBILITY.
       CURRENT SKY AND/OR WEATHER CONDITIONS ARE NOT AVAILABLE FOR
       CHILLICOTHE AND FARMINGTON.

MOZ001>031-035>038-043-044-053-054-241300-
...NORTHERN AND WESTERN MISSOURI...

CITY           SKY/WX    TMP DP  RH WIND       PRES   REMARKS
KANSAS CTY INT SUNNY     59  53  80 NW7       30.15R
6HR MIN TEMP:  57; 6HR MAX TEMP:  62;

KANSAS C DTWN  SUNNY     63  54  72 NW6       30.14R
6HR MIN TEMP:  61; 6HR MAX TEMP:  68;

LEE`S SUMMIT   SUNNY     62  54  74 NW6       30.15R
6HR MIN TEMP:  59; 6HR MAX TEMP:  65;

ST JOSEPH      SUNNY     55  54  96 N6        30.16R
6HR MIN TEMP:  51; 6HR MAX TEMP:  62;

CHILLICOTHE      N/A     62  52  69 CALM      30.13R
6HR MIN TEMP:  58; 6HR MAX TEMP:  65;

KIRKSVILLE     SUNNY     58  53  84 NW6       30.10R
6HR MIN TEMP:  54; 6HR MAX TEMP:  61;


$$
MOZ066>068-077>081-088>096-101>105-241300-
...SOUTHWEST MISSOURI...

CITY           SKY/WX    TMP DP  RH WIND       PRES   REMARKS
SPRINGFIELD    SUNNY     60  57  89 CALM      30.15R
6HR MIN TEMP:  57; 6HR MAX TEMP:  65;

JOPLIN         SUNNY     63  58  83 NE6       30.16R
6HR MIN TEMP:  59; 6HR MAX TEMP:  69;

BRANSON        PTSUNNY   63  55  77 S7        30.18R

$$
MOZ032>034-039>042-045>050-055>058-069>072-241300-
...CENTRAL MISSOURI...

CITY           SKY/WX    TMP DP  RH WIND       PRES   REMARKS
COLUMBIA       SUNNY     61  57  87 W6        30.12R
6HR MIN TEMP:  59; 6HR MAX TEMP:  66;

JEFFERSON CITY MOSUNNY   60  56  86 NW3       30.12R
6HR MIN TEMP:  59; 6HR MAX TEMP:  67;

ROLLA          SUNNY     61  56  83 W5        30.12R
6HR MIN TEMP:  55; 6HR MAX TEMP:  63;

SEDALIA        SUNNY     61  58  90 W3        30.14R
6HR MIN TEMP:  58; 6HR MAX TEMP:  64;

WHITEMAN AFB   SUNNY     60  60 100 NW5       30.13R
OSAGE BEACH    SUNNY     60  56  86 CALM      30.14R

$$
MOZ051-052-059>065-241300-
...EAST CENTRAL MISSOURI...

CITY           SKY/WX    TMP DP  RH WIND       PRES   REMARKS
ST LOUIS INTL  MOSUNNY   67  56  67 NW6       30.08R
6HR MIN TEMP:  64; 6HR MAX TEMP:  71;

SPIRIT OF STL  MOSUNNY   65  57  75 NW8       30.08R
6HR MIN TEMP:  60; 6HR MAX TEMP:  69;

ST CHARLES     SUNNY     66  56  70 NW8       30.07R
6HR MIN TEMP:  65; 6HR MAX TEMP:  70;


$$
MOZ072>076-082>087-097>100-106>115-241300-
...SOUTH CENTRAL AND SOUTHEAST MISSOURI...

CITY           SKY/WX    TMP DP  RH WIND       PRES   REMARKS
CAPE GIRARDEAU SUNNY     65  60  84 CALM      30.06R
6HR MIN TEMP:  62; 6HR MAX TEMP:  70;

FARMINGTON     SUNNY     63  56  78 NW6       30.11R
6HR MIN TEMP:  57; 6HR MAX TEMP:  68;

POPLAR BLUFF   SUNNY     65  59  81 NW10      30.08R
6HR MIN TEMP:  63; 6HR MAX TEMP:  68;

WEST PLAINS    SUNNY     64  55  72 N5        30.14R
6HR MIN TEMP:  60; 6HR MAX TEMP:  66;


$$



USA.gov is the U.S. government's official web portal to all federal, state and local government web resources and services.